STARLINK-37631, 69369

Orbit data source: Space-Track

STARLINK-37631, 69369 is a payload satellite owned by SpaceX/Seattle (US) in LEO that was launched on Thu, 04 Jun 2026 UTC via an FALCON 9 launch vehicle from the Air Force Eastern Test Range (AFETR). Payload-class satellites include a variety of spacecraft equipped with specific instruments for various scientific and technological missions. These include communications satellites like Starlink; space stations such as the ISS; scientific satellites like the Hubble; Earth observation satellites from companies like Planet Labs, Umbra, and HawkEye 360; GPS; miniature CubeSats for education and research; and military/defense satellites.

Loading next visibility...
Identifier
69369, 2026-123S
Orbit
LEO
Country
Flag of USUS
Related business
Manufacturer
SpaceX/Seattle
Mission
Operational spacecraft
Bus & Motor
STARLINK V2MO, Unknown motor
Mass
575 kg wet, ~530 kg dry
Launch date (UTC)
2026-06-04 (2 months ago)
Launch vehicle
FALCON 9
Launch site
Air Force Eastern Test Range (AFETR)
Object type
Payload
Rocket body
Debris
Shape & HBR
BOX + PAN, 17.7 m
Radar Cross Section
Large (>1 m²)

Expand to show TLE details & history
Last TLE update: 9 hours ago

TLE from 9 hours ago
0 STARLINK-37631
1 69369U 26123S   26207.55640595  .00296391  00000-0  18552-2 0  9996
2 69369  53.1578  45.2189 0004704 301.6184  58.4377 15.75423048  8259
Epoch: 2026-07-26T13:21Z
TLE epoch observation values (Epoch: 2026-07-26T13:21:13.474Z)
Latitude
-0°
Longitude
-99.33988°
Altitude
342.691 km
Speed
7.705 km/s
True Right ascension
03h 00m 52s
True Declination
0° 00' 00"
Sunlit
Object was in daylight at epoch
Visualization orbit readout
Latitude
Unknown
Longitude
Unknown
Altitude
Unknown
Speed
Unknown
Apparent Right ascension
Unknown
Apparent Declination
Unknown
Sunlit
N/A
Visualization observer readout
Local Sidereal Time
11:37:01
Azimuth
Unknown
Elevation
Unknown
Doppler factor
Unknown
Orbital elements
Apogee altitude
346.851 km
Perigee altitude
340.527 km
Semi-major axis
6,721.826 km
Eccentricity
0.00047
Inclination
53.1578°
RAAN
45.2189°
Arg. of periapsis
301.6184°
True anomaly
58.48364°
Mean anomaly
58.4377°
Eccentric anomaly
58.46067°
Mean motion
3.93833 °/min
Orbital period
91.41 mins
BSTAR
0.0018552
Loading maneuver chart data...
Computing Atmospheric mass density...
Loading historical data...
Loading historical data...
Loading historical data...
Loading historical data...
Loading historical data...
Loading historical data...
Loading historical data...

Documentation

Showing up to 5 results
|